Holland, MI

2:12 PM EST on December 15, 2017 (GMT -0500)
Tulip City

Weather History for KBIV - February, 2013

Change the Weather History Date:

Saturday, February 23, 2013

  Actual Average Record
Temperature  
Mean Temperature 31 °F 30 °F  
Max Temperature 33 °F 37 °F 61 °F (2017)
Min Temperature 29 °F 23 °F -8 °F (2015)
Degree Days  
Heating Degree Days 34 35  
Month to date heating degree days 915 857  
Since 1 July heating degree days 4091 4331  
Cooling Degree Days 0 0  
Month to date cooling degree days 0 0  
Year to date cooling degree days 0 0  
Moisture  
Dew Point 22 °F    
Average Humidity 71    
Maximum Humidity 78    
Minimum Humidity 63    
Precipitation  
Precipitation 0.03 in 0.08 in 0.80 in (1990)
Month to date precipitation 1.86 1.42  
Year to date precipitation 5.02 3.51  
Sea Level Pressure  
Sea Level Pressure 29.89 in    
Wind  
Wind Speed 14 mph (WSW)    
Max Wind Speed 22 mph    
Max Gust Speed 28 mph    
Visibility 6 miles    
Events Snow    
T = Trace of Precipitation, MM = Missing Value Source: NWS Daily Summary

Daily Weather History Graph

Daily Weather History Graph

Search for Another Location

Airport or City:

Trip Planner

Search our weather history database for the weather conditions in past years. The results will help you decide how hot, cold, wet, or windy it might be!

Date:

Astronomy

Feb. 23, 2013 Rise Set
Actual Time 7:29 AM EST 6:26 PM EST
Civil Twilight 7:00 AM EST 6:55 PM EST
Nautical Twilight 6:27 AM EST 7:28 PM EST
Astronomical Twilight 5:55 AM EST 8:00 PM EST
Moon 4:35 PM EST (2/23) 5:53 AM EST (2/23)
Length of Visible Light 11h 54m
Length of Day
10h 57m
Waxing Gibbous, 95% of the Moon is Illuminated
Feb 23
Waxing Gibbous
Feb 25
Full
Mar 4
Last Quarter
Mar 11
New
Mar 19
First Quarter

Hourly Weather History & Observations

Time (EST) Temp. Windchill Dew Point Humidity Pressure Visibility Wind Dir Wind Speed Gust Speed Precip Events Conditions
12:53 AM 33.1 °F 22.2 °F 26.1 °F 75% 29.88 in 9.0 mi SW 17.3 mph - 0.00 in   Overcast
1:10 AM 33.8 °F 23.5 °F 26.6 °F 75% 29.85 in 10.0 mi SW 16.1 mph - N/A   Overcast
1:42 AM 33.8 °F 23.5 °F 26.6 °F 75% 29.85 in 6.0 mi SW 16.1 mph 21.9 mph 0.00 in Snow Light Snow
1:49 AM 33.8 °F 24.3 °F 26.6 °F 75% 29.85 in 7.0 mi WSW 13.8 mph 21.9 mph 0.00 in Snow Light Snow
1:53 AM 33.1 °F 23.0 °F 25.0 °F 72% 29.87 in 8.0 mi SW 15.0 mph - 0.00 in Snow Light Snow
2:27 AM 33.8 °F 23.9 °F 24.8 °F 70% 29.84 in 9.0 mi SW 15.0 mph - N/A   Overcast
2:53 AM 33.1 °F 22.2 °F 25.0 °F 72% 29.87 in 8.0 mi SW 17.3 mph - N/A   Overcast
3:53 AM 33.1 °F 23.0 °F 25.0 °F 72% 29.86 in 8.0 mi WSW 15.0 mph - 0.00 in Snow Light Snow
4:53 AM 32.0 °F 22.1 °F 26.1 °F 79% 29.86 in 6.0 mi WSW 13.8 mph - 0.00 in Snow Light Snow
5:53 AM 32.0 °F 22.1 °F 23.0 °F 69% 29.87 in 10.0 mi West 13.8 mph - 0.00 in   Overcast
6:53 AM 32.0 °F 23.0 °F 21.9 °F 66% 29.88 in 10.0 mi West 11.5 mph - N/A   Overcast
7:53 AM 32.0 °F 20.8 °F 23.0 °F 69% 29.89 in 8.0 mi WSW 17.3 mph - 0.00 in   Overcast
8:53 AM 32.0 °F 22.1 °F 21.9 °F 66% 29.90 in 10.0 mi WSW 13.8 mph - 0.00 in   Overcast
9:53 AM 30.9 °F 19.4 °F 21.0 °F 67% 29.89 in 10.0 mi WSW 17.3 mph - 0.00 in   Overcast
10:53 AM 30.9 °F 19.4 °F 19.0 °F 61% 29.90 in 10.0 mi WSW 17.3 mph - N/A   Overcast
11:53 AM 30.0 °F 17.9 °F 19.9 °F 66% 29.91 in 2.5 mi WSW 18.4 mph 25.3 mph 0.00 in Snow Light Snow
12:10 PM 30.2 °F 18.5 °F 19.4 °F 64% 29.89 in 4.0 mi WSW 17.3 mph - 0.00 in Snow Light Snow
12:36 PM 30.2 °F 18.1 °F 21.2 °F 69% 29.89 in 2.5 mi WSW 18.4 mph - 0.00 in Snow Light Snow
12:53 PM 30.0 °F 17.5 °F 21.0 °F 69% 29.91 in 1.5 mi WSW 19.6 mph - 0.00 in Snow Light Snow
1:13 PM 30.2 °F 18.5 °F 21.2 °F 69% 29.88 in 2.5 mi WSW 17.3 mph - 0.00 in Snow Light Snow
1:39 PM 30.2 °F 19.3 °F 21.2 °F 69% 29.88 in 4.0 mi WSW 15.0 mph - 0.01 in Snow Light Snow
1:53 PM 30.0 °F 19.1 °F 21.9 °F 72% 29.90 in 2.5 mi WSW 15.0 mph 24.2 mph 0.03 in Snow Light Snow
2:03 PM 30.2 °F 18.1 °F 21.2 °F 69% 29.87 in 5.0 mi WSW 18.4 mph - 0.00 in Snow Light Snow
2:15 PM 30.2 °F 18.9 °F 21.2 °F 69% 29.87 in 6.0 mi West 16.1 mph - 0.00 in Snow Light Snow
2:36 PM 30.2 °F 18.1 °F 21.2 °F 69% 29.87 in 2.0 mi WSW 18.4 mph - 0.00 in Snow Light Snow
2:53 PM 30.0 °F 19.5 °F 21.9 °F 72% 29.89 in 2.0 mi WSW 13.8 mph - 0.00 in Snow Light Snow
3:02 PM 30.2 °F 18.9 °F 21.2 °F 69% 29.87 in 6.0 mi WSW 16.1 mph - 0.00 in Snow Light Snow
3:35 PM 30.2 °F 19.3 °F 21.2 °F 69% 29.87 in 2.5 mi WSW 15.0 mph - 0.00 in Snow Light Snow
3:53 PM 28.9 °F 19.2 °F 23.0 °F 78% 29.91 in 1.5 mi WSW 11.5 mph - 0.00 in Snow Light Snow
4:25 PM 28.4 °F 16.6 °F 21.2 °F 74% 29.88 in 3.0 mi WSW 16.1 mph - 0.00 in Snow Light Snow
4:36 PM 28.4 °F 18.0 °F 21.2 °F 74% 29.88 in 2.5 mi SW 12.7 mph - 0.00 in Snow Light Snow
4:43 PM 28.4 °F 18.0 °F 21.2 °F 74% 29.88 in 4.0 mi SW 12.7 mph - 0.00 in Snow Light Snow
4:53 PM 30.0 °F 21.1 °F 21.9 °F 72% 29.91 in 7.0 mi SW 10.4 mph - 0.00 in Snow Light Snow
5:07 PM 30.2 °F 19.3 °F 21.2 °F 69% 29.88 in 9.0 mi WSW 15.0 mph - 0.00 in   Overcast
5:15 PM 30.2 °F 19.8 °F 21.2 °F 69% 29.88 in 6.0 mi WSW 13.8 mph - 0.00 in Snow Light Snow
5:53 PM 30.0 °F 20.0 °F 19.9 °F 66% 29.91 in 10.0 mi WSW 12.7 mph - 0.00 in   Overcast
6:53 PM 30.0 °F 21.7 °F 21.0 °F 69% 29.92 in 4.0 mi WSW 9.2 mph - 0.00 in Snow Light Snow
7:53 PM 30.9 °F 22.8 °F 19.0 °F 61% 29.93 in 10.0 mi West 9.2 mph - 0.00 in   Overcast
8:48 PM 30.2 °F 22.6 °F 19.4 °F 64% 29.91 in 10.0 mi West 8.1 mph - 0.00 in   Overcast
8:53 PM 30.9 °F 22.8 °F 19.0 °F 61% 29.94 in 10.0 mi West 9.2 mph - 0.00 in   Overcast
9:53 PM 30.9 °F 22.8 °F 19.0 °F 61% 29.93 in 10.0 mi West 9.2 mph - N/A   Overcast
10:53 PM 30.9 °F 21.2 °F 19.9 °F 64% 29.93 in 9.0 mi West 12.7 mph - 0.00 in   Overcast
11:42 PM 30.2 °F 20.8 °F 21.2 °F 69% 29.90 in 4.0 mi West 11.5 mph - 0.00 in Snow Light Snow
11:53 PM 30.0 °F 21.1 °F 21.0 °F 69% 29.92 in 7.0 mi West 10.4 mph - 0.00 in Snow Light Snow